Flag for Germany Weather past 2 weeks in Mosbach, Baden-Württemberg, Germany

Now
59 °F

Clear.


Feels Like: 59 °F
Forecast: 60 / 87 °F
Wind: 2 mph from East

Location: Oehringen

Current Time: Aug 3, 2015 at 5:43:25 AM

Latest Report: Aug 3, 2015 at 5:00 AM


Visibility: 13 mi

Pressure: 30.06 "Hg

Humidity: 77%

Dew point: 52 °F

Location of MosbachLocation

Historic Weather in Mosbach — Graph

°F

Mosbach temperature yesterday

Maximum temperature yesterday: 86 °F (at 6:00 PM)
Minimum temperature yesterday: 56 °F (at 7:00 AM)
Average temperature yesterday: 72 °F

Past Weeks' High & Low Weather Summary

 TemperatureHumidityPressure
High94 °F (Jul 22, 4:00 PM)94% (Jul 29, 3:00 PM)30.13 "Hg (Jul 29, 3:00 PM)
Low47 °F (Jul 31, 5:00 AM)25% (Aug 2, 6:00 PM)29.65 "Hg (Jul 24, 9:00 PM)
Average69 °F58%29.91 "Hg
* Reported Jul 19 4:00 AM — Aug 3 4:00 AM, Mosbach, Weather by CustomWeather, © 2015

Note: Actual official high and low records may vary slightly from our data, if they occured in-between our weather recording intervals... More about our weather records

Advertising

Mosbach weather history for previous 24 hours

 ConditionsComfort  
Time TempWeatherWind HumidityBarometerVisibility
4:00 AM
Mon, Aug 3
62 °FClear.2 mph72%30.06 "Hg14 mi
3:00 AM62 °FClear.2 mph69%30.05 "Hg16 mi
2:00 AM65 °FClear.2 mph62%30.05 "Hg22 mi
1:00 AM69 °FClear.2 mph55%30.04 "Hg25 mi
11:00 PM
Sun, Aug 2
70 °FClear.1 mph51%30.04 "Hg25 mi
10:00 PM73 °FClear.2 mph45%30.04 "Hg22 mi
9:00 PM78 °FClear.1 mph36%30.01 "Hg28 mi
8:00 PM83 °FSunny.2 mph29%30.00 "Hg28 mi
7:00 PM85 °FSunny.1 mph25%30.00 "Hg28 mi
6:00 PM86 °FSunny.1 mph25%30.00 "Hg28 mi
5:00 PM84 °FOvercast.2 mph26%30.02 "Hg31 mi
4:00 PM82 °FScattered clouds.1 mph29%30.03 "Hg28 mi
3:00 PM85 °FPassing clouds.2 mph28%30.03 "Hg17 mi
2:00 PM82 °FSunny.2 mph31%30.06 "Hg19 mi
1:00 PM79 °FSunny.2 mph37%30.07 "Hg18 mi
12:00 PM75 °FSunny.2 mph48%30.09 "Hg18 mi
11:00 AM72 °FSunny.1 mph57%30.10 "Hg17 mi
10:00 AM68 °FSunny.2 mph66%30.10 "Hg22 mi
9:00 AM65 °FSunny.2 mph74%30.10 "Hg11 mi
8:00 AM60 °FPassing clouds.1 mph78%30.11 "Hg17 mi
7:00 AM56 °FSunny.1 mph89%30.10 "Hg11 mi
5:00 AM56 °FClear.2 mph86%30.08 "Hg14 mi
Weather by CustomWeather, © 2015

See weather overviewHow to use our weather pages